星链-11136 (STARLINK-11136)

导读 | 豆包AI

STARLINK-11136是美国SpaceX公司星链(Starlink)卫星互联网项目的一颗卫星,于2024年8月10日发射升空。星链项目旨在通过构建近地轨道巨型卫星星座,为全球偏远、网络基础设施匮乏地区提供高速低延迟宽带互联网服务。作为星链星座的组成部分,STARLINK-11136将和其他卫星协同,补充星座网络覆盖,推动全球卫星互联网服务的部署与拓展,该项目计划最终发射超4万颗卫星完成组网。

基本信息
目录编号:
60407
目录名称:
STARLINK-11136
国际标识:
2024-141K
轨道中心:
EARTH
卫星名称:
星链-11136 (STARLINK-11136)
卫星全名:
星链-11136 (STARLINK-11136)
卫星状态:
在轨 (已飞行582 天)
发射日期:
2024-08-10 UTC
国别 :
美国 (US)
星等 :
--
轨道信息
数据来源 国际轨道数据
星历时间: 2026-03-15T13:52:33+0800
9小时前
查看轨道信息
半长轴: 6737.967km
偏心率: 0.0001361
轨道倾角: 53.160°
近地点辐角 74.605°
升交点赤经 59.001°
平近点角 285.512°
近地点: 358.912km
远地点: 360.748km
周期: 91.739分钟
每日圈数: 15.696741
详细信息
卫星平台:
Starlink v2.0 mini
运营商:
太空探索技术公司
运营商所在国:
美国
制造商(研发单位):
太空探索技术公司
制造商所在国:
美国
使用方式:
暂无
卫星简介
星链(Starlink)计划是由太空探索技术公司(SpaceX)提出的一个巨型低轨卫星互联网星座项目,计划在2019年至2024年间在太空搭建由约1.2万颗卫星组成的“星链”网络,其中1584颗将部署在地球上空550千米处的近地轨道,并从2020年开始工作。该卫星仍在工作。
2D轨道图
3D轨道图
轨道高度分析图
轨道倾角分析图
轨道综合分析图
查看轨道综合分析图